Regional Weather Roundup
Issued by NWS

Home | Current Version | Previous Version | Text Only | Print | Product List | Glossary On
Versions: 1 2 3 4 5 6 7 8 9 10 11 12 13 14 15 16 17 18 19 20 21 22 23 24 25 26 27 28 29 30 31 32 33 34 35 36 37 38 39 40 41 42 43 44 45 46 47 48 49 50
000
ASUS44 KBMX 291010
RWRAL

ALABAMA REGIONAL WEATHER ROUNDUP
NATIONAL WEATHER SERVICE BIRMINGHAM AL
500 AM CDT SUN MAR 29 2015

NOTE: "FAIR" INDICATES FEW OR NO CLOUDS BELOW 12,000 FEET
WITH NO SIGNIFICANT WEATHER AND/OR OBSTRUCTIONS TO VISIBILITY.

THE REMARK "TC" DENOTES TEMPERATURE IN DEGREES CELSIUS.

ALZ001>011-014-016>018-020-291100-
NORTH ALABAMA

CITY           SKY/WX    TMP DP  RH WIND       PRES   REMARKS
MUSCLE SHOALS  CLEAR     30  22  72 E5        30.30F WCI  25
HUNTSVILLE     CLEAR     29  26  89 E6        30.32S WCI  23
DECATUR        CLEAR     26  22  84 E7        30.32F WCI  18
HALEYVILLE     FAIR      27  25  92 CALM      30.32R
GADSDEN        CLEAR     27  21  80 CALM      30.32R
$$

ALZ012-013-022-023-030>036-040>044-291100-
WEST CENTRAL ALABAMA

CITY           SKY/WX    TMP DP  RH WIND       PRES   REMARKS
TUSCALOOSA     CLOUDY    44  32  62 NE3       30.33S
$$

ALZ015-024>027-033>036-040>044-291100-
CENTRAL ALABAMA

CITY           SKY/WX    TMP DP  RH WIND       PRES   REMARKS
BIRMINGHAM     PTCLDY    37  16  42 NE5       30.34R WCI  33
MONTGOMERY     CLOUDY    46  27  47 NE6       30.34R
SHELBY CO ARPT CLOUDY    42  22  44 VRB3      30.32S
MAXWELL AFB    CLOUDY    47  25  42 NE6       30.33R
GREENVILLE     NOT AVBL
$$

ALZ019-021-028-029-037-038-045>048-291100-
EAST CENTRAL ALABAMA

CITY           SKY/WX    TMP DP  RH WIND       PRES   REMARKS
ANNISTON       CLEAR     31  26  82 NE3       30.33S
ALEXANDER CITY CLOUDY    40  21  46 CALM      30.33R
AUBURN         CLOUDY    37  18  44 NE8       30.34R WCI  31
$$

ALZ051>064-291100-
SOUTHWEST ALABAMA

CITY           SKY/WX    TMP DP  RH WIND       PRES   REMARKS
MOBILE         CLEAR     42  33  70 NE6       30.29R
BROOKLEY FIELD CLEAR     47  34  60 NE8       30.30S
EVERGREEN      CLEAR     38  35  89 CALM      30.31F
$$

ALZ049-050-065>069-291100-
SOUTHEAST ALABAMA

CITY           SKY/WX    TMP DP  RH WIND       PRES   REMARKS
DOTHAN         CLOUDY    45  33  63 N5        30.35R
OZARK          CLOUDY    44  34  67 N2        30.32R
TROY           CLOUDY    45  35  68 CALM      30.33R
EUFAULA        CLOUDY    46  25  43 NE3       30.32R
$$



USA.gov is the U.S. government's official web portal to all federal, state and local government web resources and services.